EPSILON R/B (49405 NORAD) Tracking and Keplerian Element Data

This shows tracking and keplerian element data for the satellite.

Feedback or suggestion? Click here.




ElementValue
Catalog49405
NameEPSILON R/B
Epoch Orbit424
Epoch Day340.20565719
Epoch Year2021
RAAN42.2159
Inclination97.6838
Eccentricity0.0205934
Argument of Perigee47.8323
Mean Anonmoly314.0169
Mean Motion15.71512761
Decay Rate0.00305082
L11 49405U 21102L 21340.20565719 .00305082 22377-5 62481-3 0 9991
L22 49405 97.6838 42.2159 0205934 47.8323 314.0169 15.71512761 4248

Live tracking and technical data element details for EPSILON R/B (NORAD 49405). EPSILON R/B can be tracked NOW for your location showing map with azimuth and elevation plus other details from your city location.

Track the satellite on the map from your city or location and see movement details for azimuth, elevation, latitude, longitude, range, height, and movement on the map or in text.







IsCatalogInMostPopularTable: catalog: 49405, numindb: 11
Update: records affected: 1



GetName: 49405 EPSILON R/B

Hit Count: updated at: Thu, 20 Jan 2022 16:23:00 GMT